AirNav   Air Wisconsin Up To $57,000 Bonus
 
 1437 users online  

5H3 Clear Lake Municipal Airport
Clear Lake, South Dakota, USA

GOING TO CLEAR LAKE?


FAA INFORMATION EFFECTIVE 02 JANUARY 2020

Location

FAA Identifier: 5H3
Lat/Long: 44-46-18.1002N 096-41-18.2079W
44-46.301670N 096-41.303465W
44.7716945,-96.6883911
(estimated)
Elevation: 1804 ft. / 549.9 m (surveyed)
Variation: 06E (1985)
From city: 1 mile N of CLEAR LAKE, SD
Time zone: UTC -6 (UTC -5 during Daylight Saving Time)
Zip code: 57226

Airport Operations

Airport use: Open to the public
Activation date: 09/1964
Control tower: no
ARTCC: MINNEAPOLIS CENTER
FSS: HURON FLIGHT SERVICE STATION
NOTAMs facility: HON (NOTAM-D service available)
Attendance: UNATNDD
Wind indicator: lighted
Segmented circle: no
Lights: ACTVT LIRL RY 13/31 - CTAF.
Beacon: white-green (lighted land airport)
Operates sunset to sunrise.

Airport Communications

CTAF: 122.9
WX AWOS-3 at CNB (18 nm E): 118.575 (507-223-5293)

Nearby radio navigation aids

VOR radial/distance  VOR name  Freq  Var
ATYr114/23.0WATERTOWN VORTAC116.6009E

 
NDB name  Hdg/Dist  Freq  Var  ID
ORTONVILLE195/33.833205EVVV ...- ...- ...-
APPLETON221/39.835605EAQP .- --.- .--.

Airport Services

Parking: tiedowns
Airframe service: NONE
Powerplant service: NONE
Bottled oxygen: NONE
Bulk oxygen: NONE

Runway Information

Runway 13/31

Dimensions: 3000 x 150 ft. / 914 x 46 m
Surface: turf, in good condition
Runway edge lights: low intensity
Runway edge markings: RY 13 /31 MKD WITH WHITE AND BLACK CONE MARKERS.
RUNWAY 13  RUNWAY 31
Latitude: 44-46.480167N44-46.113000N
Longitude: 096-41.496333W096-41.031500W
Elevation: 1804.0 ft.1801.0 ft.
Traffic pattern: leftleft
Markings: NSTDNSTD
Runway end identifier lights: nono
Obstructions: 17 ft. road, 340 ft. from runway, 20:1 slope to clear21 ft. pline, 420 ft. from runway, 20:1 slope to clear

Runway 2/20

Dimensions: 2130 x 150 ft. / 649 x 46 m
Surface: turf, in fair condition
RUNWAY 2  RUNWAY 20
Latitude: 44-46.146000N44-46.471667N
Longitude: 096-41.450000W096-41.268333W
Elevation: 1799.0 ft.1804.0 ft.
Traffic pattern: leftleft
Obstructions: none17 ft. road, 375 ft. from runway, 22:1 slope to clear

Airport Ownership and Management from official FAA records

Ownership: Publicly-owned
Owner: CITY OF CLEAR LAKE
PO BOX 107
CLEAR LAKE, SD 57226
Phone 605-874-2121
Manager: DON EBERS
PO BOX 107
CLEAR LAKE, SD 57226
Phone 605-874-2121

Airport Operational Statistics

Aircraft based on the field: 3
Single engine airplanes: 3
    
Aircraft operations: avg 46/month *
91% local general aviation
9% transient general aviation
* for 12-month period ending 25 July 2019

Additional Remarks

RY 31 +4' FENCE 255' FM THR;
RY 02 +4' FENCE 145' FM THR.
ARPT CLSD WINTER MONTHS DUE TO SNOW CONDITIONS, CALL 605-874-2121 FOR CONDITIONS .
WILDLIFE ON & INVOF ARPT.
FOR CD CTC MINNEAPOLIS ARTCC AT 651-463-5588.

Instrument Procedures

There are no published instrument procedures at 5H3.

Some nearby airports with instrument procedures:

KCNB - Myers Field Airport (18 nm E)
KATY - Watertown Regional Airport (22 nm NW)
KDXX - Lac Qui Parle County Airport (25 nm NE)
1D1 - Milbank Municipal Airport (28 nm N)
KBKX - Brookings Regional Airport (29 nm S)
 
Loc | Ops | Rwys | IFR | FBO | Links
Com | Nav | Svcs | Stats | Notes

Bismarck Aero Center
AirBoss

 
Area around 5H3 (Clear Lake Municipal Airport)
 
Road maps at: MapQuest Bing Google
 
Aerial photo
WARNING: Photo may not be current or correct
Aerial photo of 5H3 (Clear Lake Municipal Airport)
Photo by Steve Hamilton
Photo taken 28-Oct-2008

Do you have a better or more recent aerial photo of Clear Lake Municipal Airport that you would like to share? If so, please send us your photo.

 
Sectional chart

 
Airport distance calculator
Flying to Clear Lake Municipal Airport? Find the distance to fly.

From to 5H3

Sunrise and sunset
Times for 29-Jan-2020
 Local
(UTC-6)
 Zulu
(UTC)
Morning civil twilight07:1913:19
Sunrise07:5013:50
Sunset17:3023:30
Evening civil twilight18:0100:01

Current date and time
Zulu (UTC)  29-Jan-2020 14:54:01
Local (UTC-6)  29-Jan-2020 08:54:01
 
METAR
KCNB 
18nm E 
291436Z AUTO 00000KT 1 1/4SM BR OVC004 M06/M07 A3017 RMK AO2 T10631072
KATY 
21nm W 
291353Z AUTO 15006KT 1/4SM FZFG OVC002 M10/M11 A3010 RMK AO2 SLP224 I1001 T11001106
KDXX 
26nm NE 
291415Z AUTO 00000KT M1/4SM FZFG OVC002 M08/M09 A3018 RMK AO2
KBKX 
30nm S 
291442Z AUTO 12004KT 3/4SM BR OVC003 M11/M11 A3013 RMK AO2 FZRANO RVRNO
KVVV 
34nm N 
291436Z AUTO 00000KT 1/2SM FZFG OVC002 M10/M11 A3017 RMK AO2
TAF
KATY 
21nm W 
291333Z 2914/3012 15007KT 1SM BR OVC002 FM291600 VRB05KT P6SM OVC007 FM292100 18006KT P6SM OVC003
NOTAMs
Click for the latest NOTAMs
NOTAMs are issued by the DoD/FAA and will open in a separate window not controlled by AirNav.

 

 
 

Would you like to see your business listed on this page?

 If your business provides an interesting product or service to pilots, flight crews, aircraft, or users of the Clear Lake Municipal Airport, you should consider listing it here.  To start the listing process, click on the button below
 
Add a business
 

Other Pages about Clear Lake Municipal Airport

Update a link
 
Copyright © AirNav, LLC. All rights reserved. Privacy Policy  Contact